| time (UTC) | temp C | wind direction | speed KPH | gust KPH | rain 1hr cm | rain 24hr cm | rain mn cm | humidity % | barometer mb |
| 20260505071545 | 10 | 0 | 0.0 | 6.4 | 0.36 | 1.27 | 0.46 | 81 | 1008.6 |
| 20260505071023 | 10 | 0 | 0.0 | 6.4 | 0.30 | 1.22 | 0.41 | 81 | 1008.5 |
| 20260505070528 | 11 | 0 | 1.6 | 6.4 | 0.28 | 1.19 | 0.38 | 79 | 1008.3 |
| 20260505070044 | 11 | 68 | 0.0 | 17.7 | 0.23 | 1.14 | 0.33 | 77 | 1009.0 |
| 20260505065523 | 11 | 0 | 0.0 | 19.3 | 0.18 | 1.09 | 0.28 | 73 | 1009.5 |
| 20260505065023 | 12 | 0 | 4.8 | 20.9 | 0.15 | 1.07 | 0.25 | 69 | 1009.8 |
| 20260505064536 | 13 | 35 | 8.0 | 22.5 | 0.13 | 1.04 | 0.23 | 65 | 1009.5 |
| 20260505064026 | 13 | 344 | 3.2 | 24.1 | 0.03 | 0.94 | 0.13 | 58 | 1009.4 |
| 20260505063523 | 14 | 9 | 9.7 | 24.1 | 0.03 | 0.94 | 0.13 | 55 | 1008.6 |
| 20260505063040 | 15 | 0 | 8.0 | 32.2 | 0.00 | 0.91 | 0.10 | 51 | 1007.8 |
| 20260505062521 | 16 | 53 | 11.3 | 32.2 | 0.00 | 0.91 | 0.10 | 47 | 1007.5 |
| 20260505062024 | 16 | 10 | 8.0 | 20.9 | 0.00 | 0.91 | 0.10 | 46 | 1007.6 |
| 20260505061535 | 16 | 19 | 8.0 | 24.1 | 0.00 | 0.91 | 0.10 | 46 | 1007.7 |
| 20260505061024 | 16 | 59 | 6.4 | 25.7 | 0.00 | 0.91 | 0.10 | 46 | 1007.2 |
| 20260505060524 | 16 | 33 | 11.3 | 29.0 | 0.03 | 0.91 | 0.10 | 46 | 1007.2 |
| 20260505060056 | 16 | 19 | 9.7 | 29.0 | 0.08 | 0.91 | 0.10 | 49 | 1007.0 |
| 20260505055527 | 16 | 19 | 9.7 | 29.0 | 0.13 | 0.91 | 0.10 | 48 | 1006.4 |
| 20260505055023 | 16 | 22 | 11.3 | 27.4 | 0.18 | 0.91 | 0.10 | 52 | 1006.1 |
| 20260505054540 | 16 | 28 | 8.0 | 20.9 | 0.53 | 0.91 | 0.10 | 56 | 1005.9 |
| 20260505054027 | 16 | 29 | 8.0 | 29.0 | 0.69 | 0.91 | 0.10 | 56 | 1005.7 |
| 20260505053525 | 16 | 37 | 8.0 | 29.0 | 0.91 | 0.91 | 0.10 | 58 | 1005.7 |
| 20260505053038 | 15 | 32 | 6.4 | 20.9 | 0.91 | 0.91 | 0.10 | 66 | 1005.8 |
| 20260505052523 | 15 | 24 | 8.0 | 19.3 | 0.91 | 0.91 | 0.10 | 70 | 1005.7 |
| 20260505052024 | 14 | 349 | 3.2 | 8.0 | 0.91 | 0.91 | 0.10 | 80 | 1005.8 |
| 20260505051535 | 14 | 0 | 1.6 | 8.0 | 0.91 | 0.91 | 0.10 | 84 | 1005.5 |
| 20260505051022 | 14 | 0 | 0.0 | 6.4 | 0.91 | 0.91 | 0.10 | 84 | 1005.3 |
| 20260505050524 | 14 | 0 | 0.0 | 0.0 | 0.89 | 0.89 | 0.08 | 83 | 1005.4 |
| 20260505041549 | 21 | 26 | 6.4 | 17.7 | 0.00 | 0.00 | 0.00 | 51 | 1004.3 |
| 20260505041023 | 21 | 300 | 6.4 | 16.1 | 0.00 | 0.00 | 0.00 | 56 | 1004.2 |
| 20260505040530 | 21 | 0 | 3.2 | 12.9 | 0.00 | 0.00 | 0.00 | 62 | 1004.4 |
| 20260505040041 | 21 | 0 | 1.6 | 14.5 | 0.00 | 0.00 | 0.00 | 64 | 1004.5 |
| 20260505035527 | 21 | 352 | 3.2 | 14.5 | 0.00 | 0.00 | 0.00 | 65 | 1004.3 |
| 20260505035023 | 21 | 24 | 1.6 | 8.0 | 0.00 | 0.00 | 0.00 | 68 | 1004.4 |
| 20260505034537 | 21 | 11 | 0.0 | 4.8 | 0.00 | 0.00 | 0.00 | 69 | 1004.3 |
| 20260505034027 | 21 | 0 | 0.0 | 0.0 | 0.00 | 0.00 | 0.00 | 68 | 1003.9 |
| 20260505033523 | 21 | 0 | 0.0 | 0.0 | 0.00 | 0.00 | 0.00 | 68 | 1003.7 |
| 20260505033037 | 21 | 0 | 0.0 | 0.0 | 0.00 | 0.00 | 0.00 | 68 | 1003.6 |
| 20260505032523 | 21 | 0 | 0.0 | 0.0 | 0.00 | 0.00 | 0.00 | 68 | 1003.6 |
| 20260505032023 | 21 | 0 | 0.0 | 0.0 | 0.00 | 0.00 | 0.00 | 68 | 1003.7 |
| 20260505031536 | 21 | 0 | 0.0 | 0.0 | 0.00 | 0.00 | 0.00 | 67 | 1003.6 |
| 20260505031024 | 21 | 0 | 0.0 | 0.0 | 0.00 | 0.00 | 0.00 | 67 | 1003.6 |
| 20260505030524 | 21 | 0 | 0.0 | 0.0 | 0.00 | 0.00 | 0.00 | 66 | 1003.6 |
| 20260505030044 | 21 | 0 | 0.0 | 0.0 | 0.00 | 0.00 | 0.00 | 66 | 1003.6 |
| 20260505025526 | 22 | 0 | 0.0 | 1.6 | 0.00 | 0.00 | 0.00 | 65 | 1003.5 |
| 20260505025023 | 22 | 0 | 0.0 | 1.6 | 0.00 | 0.00 | 0.00 | 65 | 1003.4 |
| 20260505024534 | 22 | 0 | 0.0 | 1.6 | 0.00 | 0.00 | 0.00 | 64 | 1003.3 |
| 20260505024023 | 22 | 0 | 0.0 | 0.0 | 0.00 | 0.00 | 0.00 | 64 | 1003.2 |
| 20260505023522 | 22 | 0 | 0.0 | 4.8 | 0.00 | 0.00 | 0.00 | 64 | 1003.2 |
| 20260505023034 | 22 | 0 | 0.0 | 6.4 | 0.00 | 0.00 | 0.00 | 64 | 1003.2 |
| 20260505022524 | 22 | 0 | 0.0 | 6.4 | 0.00 | 0.00 | 0.00 | 64 | 1003.1 |
| 20260505022023 | 22 | 0 | 0.0 | 0.0 | 0.00 | 0.00 | 0.00 | 64 | 1003.1 |
| 20260505021537 | 21 | 0 | 0.0 | 0.0 | 0.00 | 0.00 | 0.00 | 64 | 1003.0 |
| 20260505021021 | 21 | 0 | 0.0 | 0.0 | 0.00 | 0.00 | 0.00 | 64 | 1003.1 |
| 20260505020521 | 21 | 0 | 0.0 | 0.0 | 0.00 | 0.00 | 0.00 | 64 | 1002.9 |
| 20260505020040 | 21 | 0 | 0.0 | 0.0 | 0.00 | 0.00 | 0.00 | 64 | 1002.9 |
| 20260505015524 | 22 | 0 | 0.0 | 0.0 | 0.00 | 0.00 | 0.00 | 63 | 1002.8 |
| 20260505015024 | 22 | 0 | 0.0 | 0.0 | 0.00 | 0.00 | 0.00 | 61 | 1002.8 |
| 20260505014559 | 22 | 0 | 0.0 | 0.0 | 0.00 | 0.00 | 0.00 | 60 | 1002.7 |
| 20260505014024 | 22 | 0 | 0.0 | 0.0 | 0.00 | 0.00 | 0.00 | 58 | 1002.8 |
| 20260505013522 | 22 | 0 | 0.0 | 0.0 | 0.00 | 0.00 | 0.00 | 57 | 1002.7 |
| 20260505013046 | 22 | 0 | 0.0 | 0.0 | 0.00 | 0.00 | 0.00 | 56 | 1002.7 |
| 20260505012527 | 23 | 0 | 0.0 | 0.0 | 0.00 | 0.00 | 0.00 | 54 | 1002.5 |
| 20260505012023 | 23 | 0 | 0.0 | 0.0 | 0.00 | 0.00 | 0.00 | 55 | 1002.4 |
| 20260505011540 | 23 | 0 | 0.0 | 0.0 | 0.00 | 0.00 | 0.00 | 54 | 1002.2 |
| 20260505011025 | 23 | 0 | 0.0 | 0.0 | 0.00 | 0.00 | 0.00 | 53 | 1002.2 |
| 20260505010522 | 23 | 0 | 0.0 | 0.0 | 0.00 | 0.00 | 0.00 | 52 | 1002.1 |
| 20260505010051 | 24 | 0 | 0.0 | 0.0 | 0.00 | 0.00 | 0.00 | 51 | 1002.1 |
| 20260505005525 | 24 | 0 | 0.0 | 0.0 | 0.00 | 0.00 | 0.00 | 51 | 1002.1 |
| 20260505005023 | 24 | 0 | 0.0 | 0.0 | 0.00 | 0.00 | 0.00 | 50 | 1002.0 |
| 20260505004546 | 25 | 0 | 0.0 | 0.0 | 0.00 | 0.00 | 0.00 | 50 | 1002.1 |
| 20260505004025 | 25 | 0 | 0.0 | 0.0 | 0.00 | 0.00 | 0.00 | 50 | 1002.1 |
| 20260505003523 | 25 | 0 | 0.0 | 0.0 | 0.00 | 0.00 | 0.00 | 48 | 1002.0 |
| 20260505003052 | 25 | 0 | 0.0 | 0.0 | 0.00 | 0.00 | 0.00 | 48 | 1002.0 |
| 20260505002523 | 25 | 0 | 0.0 | 0.0 | 0.00 | 0.00 | 0.00 | 48 | 1002.0 |
| 20260505002023 | 25 | 0 | 0.0 | 0.0 | 0.00 | 0.00 | 0.00 | 47 | 1001.9 |
| 20260505001537 | 26 | 0 | 0.0 | 0.0 | 0.00 | 0.00 | 0.00 | 47 | 1001.9 |
| 20260505001024 | 26 | 0 | 0.0 | 0.0 | 0.00 | 0.00 | 0.00 | 47 | 1001.9 |
| 20260505000523 | 26 | 0 | 0.0 | 0.0 | 0.00 | 0.00 | 0.00 | 46 | 1002.0 |
| 20260505000037 | 26 | 0 | 0.0 | 0.0 | 0.00 | 0.00 | 0.00 | 45 | 1002.0 |
| 20260504235523 | 26 | 0 | 0.0 | 3.2 | 0.00 | 0.00 | 0.00 | 45 | 1002.0 |
| 20260504235023 | 26 | 0 | 0.0 | 3.2 | 0.00 | 0.00 | 0.00 | 46 | 1002.0 |
| 20260504234538 | 26 | 0 | 0.0 | 0.0 | 0.00 | 0.00 | 0.00 | 46 | 1002.0 |
| 20260504234021 | 26 | 0 | 0.0 | 0.0 | 0.00 | 0.00 | 0.00 | 47 | 1002.0 |
| 20260504233524 | 26 | 0 | 0.0 | 0.0 | 0.00 | 0.00 | 0.00 | 46 | 1002.0 |
| 20260504233037 | 26 | 0 | 0.0 | 4.8 | 0.00 | 0.00 | 0.00 | 47 | 1002.0 |
| 20260504232527 | 26 | 0 | 0.0 | 4.8 | 0.00 | 0.00 | 0.00 | 46 | 1002.0 |
| 20260504232021 | 26 | 0 | 0.0 | 4.8 | 0.00 | 0.00 | 0.00 | 45 | 1002.1 |
| 20260504231537 | 26 | 0 | 0.0 | 1.6 | 0.00 | 0.00 | 0.00 | 45 | 1001.9 |
| 20260504231022 | 26 | 158 | 0.0 | 1.6 | 0.00 | 0.00 | 0.00 | 46 | 1002.0 |
| 20260504230524 | 26 | 0 | 0.0 | 12.9 | 0.00 | 0.00 | 0.00 | 44 | 1002.1 |
| 20260504230035 | 26 | 0 | 0.0 | 12.9 | 0.00 | 0.00 | 0.00 | 44 | 1002.1 |
| 20260504225523 | 27 | 0 | 0.0 | 11.3 | 0.00 | 0.00 | 0.00 | 43 | 1002.1 |
| 20260504225021 | 27 | 217 | 0.0 | 11.3 | 0.00 | 0.00 | 0.00 | 43 | 1002.0 |
| 20260504224534 | 27 | 0 | 1.6 | 14.5 | 0.00 | 0.00 | 0.00 | 40 | 1002.1 |
| 20260504224023 | 27 | 19 | 3.2 | 14.5 | 0.00 | 0.00 | 0.00 | 40 | 1002.1 |
| 20260504223523 | 28 | 178 | 1.6 | 9.7 | 0.00 | 0.00 | 0.00 | 41 | 1002.0 |
| 20260504223055 | 28 | 0 | 0.0 | 8.0 | 0.00 | 0.00 | 0.00 | 41 | 1002.0 |
| 20260504222523 | 28 | 328 | 1.6 | 8.0 | 0.00 | 0.00 | 0.00 | 40 | 1002.1 |
| 20260504222023 | 27 | 0 | 0.0 | 8.0 | 0.00 | 0.00 | 0.00 | 39 | 1002.1 |
| 20260504221537 | 27 | 0 | 1.6 | 8.0 | 0.00 | 0.00 | 0.00 | 38 | 1002.2 |
| 20260504221024 | 27 | 0 | 1.6 | 11.3 | 0.00 | 0.00 | 0.00 | 37 | 1002.2 |
| 20260504220521 | 28 | 0 | 1.6 | 11.3 | 0.00 | 0.00 | 0.00 | 36 | 1002.1 |
| 20260504220036 | 28 | 225 | 1.6 | 9.7 | 0.00 | 0.00 | 0.00 | 40 | 1002.2 |
| 20260504215522 | 28 | 0 | 1.6 | 8.0 | 0.00 | 0.00 | 0.00 | 40 | 1002.2 |
| 20260504215026 | 27 | 40 | 3.2 | 16.1 | 0.00 | 0.00 | 0.00 | 41 | 1002.3 |
| 20260504214537 | 27 | 292 | 1.6 | 16.1 | 0.00 | 0.00 | 0.00 | 41 | 1002.3 |
| 20260504214027 | 27 | 190 | 4.8 | 12.9 | 0.00 | 0.00 | 0.00 | 41 | 1002.3 |
| 20260504213523 | 27 | 342 | 3.2 | 24.1 | 0.00 | 0.00 | 0.00 | 41 | 1002.4 |
| 20260504213036 | 27 | 308 | 3.2 | 24.1 | 0.00 | 0.00 | 0.00 | 41 | 1002.4 |
| 20260504212523 | 27 | 180 | 1.6 | 12.9 | 0.00 | 0.00 | 0.00 | 41 | 1002.5 |
| 20260504212024 | 27 | 289 | 1.6 | 11.3 | 0.00 | 0.00 | 0.00 | 42 | 1002.7 |
| 20260504211551 | 27 | 0 | 0.0 | 14.5 | 0.00 | 0.00 | 0.00 | 43 | 1002.7 |
| 20260504211023 | 27 | 186 | 4.8 | 14.5 | 0.00 | 0.00 | 0.00 | 41 | 1002.8 |
| 20260504210524 | 27 | 289 | 0.0 | 12.9 | 0.00 | 0.00 | 0.00 | 41 | 1002.8 |
| 20260504210043 | 27 | 267 | 1.6 | 12.9 | 0.00 | 0.00 | 0.00 | 41 | 1002.7 |
| 20260504205523 | 27 | 5 | 1.6 | 12.9 | 0.00 | 0.00 | 0.00 | 41 | 1002.8 |
| 20260504205023 | 27 | 81 | 3.2 | 12.9 | 0.00 | 0.00 | 0.00 | 41 | 1002.7 |
| 20260504204535 | 27 | 261 | 0.0 | 11.3 | 0.00 | 0.00 | 0.00 | 42 | 1002.7 |
| 20260504204023 | 27 | 317 | 0.0 | 12.9 | 0.00 | 0.00 | 0.00 | 40 | 1002.8 |
| 20260504203522 | 27 | 159 | 1.6 | 12.9 | 0.00 | 0.00 | 0.00 | 41 | 1002.8 |
| 20260504203037 | 27 | 10 | 1.6 | 12.9 | 0.00 | 0.00 | 0.00 | 41 | 1002.8 |
| 20260504202523 | 27 | 121 | 1.6 | 9.7 | 0.00 | 0.00 | 0.00 | 40 | 1002.9 |
| 20260504202024 | 27 | 300 | 1.6 | 11.3 | 0.00 | 0.00 | 0.00 | 40 | 1002.9 |
| 20260504201534 | 28 | 91 | 3.2 | 11.3 | 0.00 | 0.00 | 0.00 | 38 | 1003.0 |
| 20260504201024 | 28 | 186 | 1.6 | 11.3 | 0.00 | 0.00 | 0.00 | 39 | 1003.1 |
| 20260504200523 | 28 | 0 | 1.6 | 17.7 | 0.00 | 0.00 | 0.00 | 38 | 1003.0 |
| 20260504200036 | 28 | 348 | 1.6 | 17.7 | 0.00 | 0.00 | 0.00 | 38 | 1003.1 |
| 20260504195522 | 28 | 167 | 4.8 | 16.1 | 0.00 | 0.00 | 0.00 | 36 | 1003.0 |
| 20260504195023 | 28 | 0 | 3.2 | 11.3 | 0.00 | 0.00 | 0.00 | 36 | 1003.1 |
| 20260504194542 | 28 | 298 | 1.6 | 9.7 | 0.00 | 0.00 | 0.00 | 36 | 1003.1 |
| 20260504194024 | 28 | 275 | 1.6 | 16.1 | 0.00 | 0.00 | 0.00 | 36 | 1003.2 |
| 20260504193524 | 27 | 270 | 3.2 | 16.1 | 0.00 | 0.00 | 0.00 | 37 | 1003.2 |
| 20260504193038 | 27 | 158 | 1.6 | 12.9 | 0.00 | 0.00 | 0.00 | 37 | 1003.1 |
| 20260504192522 | 27 | 320 | 4.8 | 12.9 | 0.00 | 0.00 | 0.00 | 39 | 1003.2 |
| 20260504192021 | 27 | 209 | 1.6 | 11.3 | 0.00 | 0.00 | 0.00 | 39 | 1003.2 |
| 20260504191537 | 27 | 282 | 1.6 | 9.7 | 0.00 | 0.00 | 0.00 | 39 | 1003.2 |
| 20260504191025 | 27 | 94 | 1.6 | 14.5 | 0.00 | 0.00 | 0.00 | 41 | 1003.3 |
| 20260504190523 | 27 | 292 | 1.6 | 16.1 | 0.00 | 0.00 | 0.00 | 41 | 1003.3 |
| 20260504190038 | 27 | 309 | 6.4 | 16.1 | 0.00 | 0.00 | 0.00 | 42 | 1003.3 |
| 20260504185524 | 27 | 146 | 4.8 | 14.5 | 0.00 | 0.00 | 0.00 | 42 | 1003.3 |
| 20260504185024 | 27 | 284 | 3.2 | 14.5 | 0.00 | 0.00 | 0.00 | 42 | 1003.2 |
| 20260504184548 | 27 | 188 | 3.2 | 12.9 | 0.00 | 0.00 | 0.00 | 42 | 1003.3 |
| 20260504184026 | 27 | 0 | 1.6 | 12.9 | 0.00 | 0.00 | 0.00 | 42 | 1003.3 |
| 20260504183524 | 26 | 348 | 4.8 | 16.1 | 0.00 | 0.00 | 0.00 | 43 | 1003.3 |
| 20260504183036 | 26 | 0 | 3.2 | 22.5 | 0.00 | 0.00 | 0.00 | 40 | 1003.3 |
| 20260504182523 | 26 | 99 | 8.0 | 22.5 | 0.00 | 0.00 | 0.00 | 41 | 1003.4 |
| 20260504182027 | 26 | 140 | 4.8 | 20.9 | 0.00 | 0.00 | 0.00 | 41 | 1003.4 |
| 20260504181536 | 26 | 0 | 1.6 | 20.9 | 0.00 | 0.00 | 0.00 | 43 | 1003.4 |
| 20260504181026 | 26 | 232 | 3.2 | 20.9 | 0.00 | 0.00 | 0.00 | 42 | 1003.4 |
| 20260504180526 | 26 | 146 | 3.2 | 16.1 | 0.00 | 0.00 | 0.00 | 45 | 1003.4 |
| 20260504180035 | 25 | 243 | 3.2 | 16.1 | 0.00 | 0.00 | 0.00 | 44 | 1003.5 |
| 20260504175524 | 26 | 292 | 3.2 | 14.5 | 0.00 | 0.00 | 0.00 | 43 | 1003.5 |
| 20260504175029 | 26 | 290 | 1.6 | 11.3 | 0.00 | 0.00 | 0.00 | 44 | 1003.6 |
| 20260504174540 | 26 | 328 | 3.2 | 11.3 | 0.00 | 0.00 | 0.00 | 44 | 1003.6 |
| 20260504174024 | 26 | 0 | 1.6 | 14.5 | 0.00 | 0.00 | 0.00 | 43 | 1003.6 |
| 20260504173526 | 25 | 0 | 3.2 | 14.5 | 0.00 | 0.00 | 0.00 | 45 | 1003.6 |
| 20260504173037 | 25 | 207 | 3.2 | 14.5 | 0.00 | 0.00 | 0.00 | 44 | 1003.6 |
| 20260504172525 | 25 | 346 | 3.2 | 14.5 | 0.00 | 0.00 | 0.00 | 45 | 1003.6 |
| 20260504172025 | 25 | 140 | 3.2 | 12.9 | 0.00 | 0.00 | 0.00 | 44 | 1003.7 |
| 20260504171537 | 25 | 120 | 3.2 | 16.1 | 0.00 | 0.00 | 0.00 | 45 | 1003.7 |
| 20260504171025 | 25 | 0 | 4.8 | 16.1 | 0.00 | 0.00 | 0.00 | 47 | 1003.9 |
| 20260504170524 | 25 | 123 | 1.6 | 19.3 | 0.00 | 0.00 | 0.00 | 46 | 1003.8 |
| 20260504151025 | 21 | 284 | 1.6 | 11.3 | 0.00 | 0.00 | 0.00 | 56 | 1004.0 |
| 20260504150526 | 21 | 182 | 0.0 | 19.3 | 0.00 | 0.00 | 0.00 | 55 | 1003.9 |
| 20260504141024 | 18 | 0 | 3.2 | 16.1 | 0.00 | 0.00 | 0.00 | 61 | 1004.1 |
| 20260504140525 | 18 | 0 | 3.2 | 17.7 | 0.00 | 0.00 | 0.00 | 62 | 1004.0 |
| 20260504130523 | 16 | 175 | 1.6 | 12.9 | 0.00 | 0.00 | 0.00 | 67 | 1003.9 |
| 20260504110524 | 15 | 0 | 0.0 | 0.0 | 0.00 | 0.00 | 0.00 | 67 | 1004.0 |
| 20260504100523 | 17 | 0 | 0.0 | 3.2 | 0.00 | 0.00 | 0.00 | 59 | 1004.6 |
| 20260504081539 | 18 | 0 | 1.6 | 12.9 | 0.00 | 0.00 | 0.00 | 53 | 1004.8 |
| 20260504081026 | 18 | 0 | 1.6 | 12.9 | 0.00 | 0.00 | 0.00 | 53 | 1005.0 |
| 20260504080524 | 18 | 0 | 1.6 | 17.7 | 0.00 | 0.00 | 0.00 | 53 | 1005.1 |